Satellite: CO-58
Catalog number: 28895
Epoch time:      10294.36484823
Element set:     710
Inclination:      097.9955 deg
RA of node:       174.5295 deg
Eccentricity:    0.0016720
Arg of perigee:   248.4451 deg
Mean anomaly:     111.4953 deg
Mean motion:   14.59949493 rev/day
Decay rate:       2.29e-06 rev/day^2
Epoch rev:           26539
Checksum:              357

Satellite: FALCON
Catalog number: 30776
Epoch time:      10293.56559731
Element set:    0947
Inclination:      035.4345 deg
RA of node:       002.9794 deg
Eccentricity:    0.0000984
Arg of perigee:   235.0887 deg
Mean anomaly:     124.9738 deg
Mean motion:   15.03888505 rev/day
Decay rate:      1.253e-05 rev/day^2
Epoch rev:           19894
Checksum:              335

Satellite: MAST
Catalog number: 31126
Epoch time:      10294.60307246
Element set:     992
Inclination:      097.9247 deg
RA of node:       329.9927 deg
Eccentricity:    0.0094107
Arg of perigee:   192.5698 deg
Mean anomaly:     167.3156 deg
Mean motion:   14.53631630 rev/day
Decay rate:       2.03e-06 rev/day^2
Epoch rev:           18642
Checksum:              313

Satellite: CAPE1
Catalog number: 31130
Epoch time:      10293.67409301
Element set:    0012
Inclination:      097.9257 deg
RA of node:       326.2813 deg
Eccentricity:    0.0102573
Arg of perigee:   204.0099 deg
Mean anomaly:     155.6291 deg
Mean motion:   14.52236365 rev/day
Decay rate:       2.67e-06 rev/day^2
Epoch rev:           18587
Checksum:              282

Satellite: COMPASS
Catalog number: 32787
Epoch time:      10294.70159220
Element set:     809
Inclination:      097.8822 deg
RA of node:       357.6309 deg
Eccentricity:    0.0014814
Arg of perigee:   232.6674 deg
Mean anomaly:     127.3128 deg
Mean motion:   14.82009186 rev/day
Decay rate:       9.47e-06 rev/day^2
Epoch rev:           13423
Checksum:              308

Satellite: AAUSAT2
Catalog number: 32788
Epoch time:      10293.61197823
Element set:    0800
Inclination:      097.8813 deg
RA of node:       356.7129 deg
Eccentricity:    0.0014478
Arg of perigee:   236.3027 deg
Mean anomaly:     123.6872 deg
Mean motion:   14.82156984 rev/day
Decay rate:       8.26e-06 rev/day^2
Epoch rev:           13408
Checksum:              324

Satellite: DO-64
Catalog number: 32789
Epoch time:      10294.68601801
Element set:     817
Inclination:      097.8896 deg
RA of node:       358.3983 deg
Eccentricity:    0.0014686
Arg of perigee:   230.6326 deg
Mean anomaly:     129.3604 deg
Mean motion:   14.82375651 rev/day
Decay rate:      1.547e-05 rev/day^2
Epoch rev:           13424
Checksum:              341

Satellite: CO-66
Catalog number: 32791
Epoch time:      10293.18960980
Element set:    0801
Inclination:      097.8828 deg
RA of node:       356.1395 deg
Eccentricity:    0.0014949
Arg of perigee:   236.6394 deg
Mean anomaly:     123.3383 deg
Mean motion:   14.81766688 rev/day
Decay rate:       1.13e-06 rev/day^2
Epoch rev:           13396
Checksum:              348

Satellite: RS-30
Catalog number: 32953
Epoch time:      10294.57795785
Element set:     150
Inclination:      082.5008 deg
RA of node:       311.0922 deg
Eccentricity:    0.0018619
Arg of perigee:   182.4138 deg
Mean anomaly:     177.6857 deg
Mean motion:   12.43008521 rev/day
Decay rate:        1.0e-07 rev/day^2
Epoch rev:           10944
Checksum:              290

Satellite: TACSAT-3
Catalog number: 35001
Epoch time:      10293.91420505
Element set:    0419
Inclination:      040.4529 deg
RA of node:       178.1879 deg
Eccentricity:    0.0022237
Arg of perigee:   231.4958 deg
Mean anomaly:     128.3880 deg
Mean motion:   15.43190826 rev/day
Decay rate:      9.266e-05 rev/day^2
Epoch rev:           08005
Checksum:              294

Satellite: PHARMSAT
Catalog number: 35002
Epoch time:      10294.86567329
Element set:     385
Inclination:      040.4676 deg
RA of node:       170.0898 deg
Eccentricity:    0.0024881
Arg of perigee:   240.9519 deg
Mean anomaly:     118.8808 deg
Mean motion:   15.43580270 rev/day
Decay rate:      8.508e-05 rev/day^2
Epoch rev:            8022
Checksum:              311

Satellite: HAWKSAT1
Catalog number: 35003
Epoch time:      10294.85590737
Element set:     418
Inclination:      040.4547 deg
RA of node:       160.5280 deg
Eccentricity:    0.0023984
Arg of perigee:   262.6505 deg
Mean anomaly:     097.1593 deg
Mean motion:   15.48225880 rev/day
Decay rate:     2.0101e-04 rev/day^2
Epoch rev:            8033
Checksum:              285

Satellite: CP6
Catalog number: 35004
Epoch time:      10293.92705201
Element set:    0418
Inclination:      040.4597 deg
RA of node:       164.0173 deg
Eccentricity:    0.0023757
Arg of perigee:   260.2779 deg
Mean anomaly:     099.5384 deg
Mean motion:   15.49621702 rev/day
Decay rate:     2.4803e-04 rev/day^2
Epoch rev:           08020
Checksum:              289

Satellite: AEROCUB3
Catalog number: 35005
Epoch time:      10294.82892201
Element set:     492
Inclination:      040.4653 deg
RA of node:       146.2412 deg
Eccentricity:    0.0024605
Arg of perigee:   294.3782 deg
Mean anomaly:     065.4467 deg
Mean motion:   15.64322285 rev/day
Decay rate:    1.22783e-03 rev/day^2
Epoch rev:            8048
Checksum:              292

